Regional Weather Roundup
Issued by NWS

Home | Current Version | Previous Version | Graphics & Text | Print | Product List | Glossary On
Versions: 1 2 3 4 5 6 7 8 9 10 11 12 13 14 15 16 17 18 19 20 21 22 23 24 25 26 27 28 29 30 31 32 33 34 35 36 37 38 39 40 41 42 43 44 45 46 47 48 49 50
190
ASUS43 KBIS 291302
RWRND

NORTH DAKOTA REGIONAL WEATHER ROUNDUP
NATIONAL WEATHER SERVICE BISMARCK ND
800 AM CDT SUN MAY 29 2016

NOTE: "FAIR" INDICATES FEW OR NO CLOUDS BELOW 12,000 FEET WITH NO
SIGNIFICANT WEATHER AND/OR OBSTRUCTIONS TO VISIBILITY.


NDZ001>003-009>011-017-291400-
NORTHWEST NORTH DAKOTA

CITY           SKY/WX    TMP DP  RH WIND       PRES   REMARKS
WILLISTON      SUNNY     50  47  89 S5        30.01R
MINOT          SUNNY     58  52  80 SW5       29.96S
$$

NDZ018>021-031>035-040>046-291400-
SOUTHWEST NORTH DAKOTA

CITY           SKY/WX    TMP DP  RH WIND       PRES   REMARKS
BISMARCK       SUNNY     54  52  93 W3        30.02R
DICKINSON      SUNNY     52  46  80 NW8       30.03R
GARRISON         N/A     53  52  96 W6        30.00R
HETTINGER ARPT SUNNY     49  48  97 NW3       30.07R
$$

NDZ004>008-012>016-024-026-027-054-291400-
NORTHEAST NORTH DAKOTA

CITY           SKY/WX    TMP DP  RH WIND       PRES   REMARKS
GRAND FORKS    CLOUDY    59  56  89 NW10      29.92R
GRND FRKS AFB  CLOUDY    58  57  96 N8        29.93R
DEVILS LAKE    CLOUDY    60  57  89 W8        29.95S
$$

NDZ022-023-025-028>030-036>039-047>053-291400-
SOUTHEAST NORTH DAKOTA

CITY           SKY/WX    TMP DP  RH WIND       PRES   REMARKS
FARGO          MOSUNNY   61  57  87 NW10      29.92R
JAMESTOWN      FOG       57  57 100 W9        29.96R VSB 1
$$





USA.gov is the U.S. government's official web portal to all federal, state and local government web resources and services.